W5MAI Weather Reports


Display with metric or nautical units.
time (UTC)temp
F
wind
direction
speed
MPH
gust
MPH
rain 1hr
in
rain 24hr
in
rain mn
in
humidity
%
barometer
mb
20260509191349 88 250 1.0 3.0 0.00 0.00 0.00 58 1011.9
20260509190414 87 225 1.0 8.0 0.00 0.00 0.00 63 1012.1
20260509185342 87 240 3.0 7.0 0.00 0.00 0.00 62 1012.0
20260509184417 87 269 4.0 11.0 0.00 0.00 0.00 62 1012.0
20260509183337 85 203 2.0 7.0 0.00 0.00 0.00 65 1012.0
20260509182343 85 248 2.0 7.0 0.00 0.00 0.00 64 1012.1
20260509181403 85 286 1.0 8.0 0.00 0.00 0.00 66 1012.4
20260509180329 85 161 1.0 4.0 0.00 0.00 0.00 65 1012.5
20260509175348 84 194 0.0 6.0 0.00 0.00 0.00 71 1012.7
20260509174422 85 123 1.0 3.0 0.00 0.00 0.00 67 1012.7
20260509173344 83 288 0.0 3.0 0.00 0.00 0.00 73 1012.8
20260509172403 83 227 1.0 4.0 0.00 0.00 0.00 70 1013.0
20260509171341 82 283 0.0 4.0 0.00 0.00 0.00 75 1013.0
20260509170336 82 203 3.0 7.0 0.00 0.00 0.00 71 1012.9
20260509165346 82 260 3.0 7.0 0.00 0.00 0.00 72 1012.9
20260509164419 81 168 1.0 4.0 0.00 0.00 0.00 76 1013.1
20260509163413 80 217 2.0 6.0 0.00 0.00 0.00 79 1013.2
20260509162426 79 271 3.0 7.0 0.00 0.00 0.00 81 1013.2
20260509161424 78 205 0.0 3.0 0.00 0.00 0.00 83 1013.4
20260509155356 77 182 1.0 5.0 0.00 0.00 0.00 84 1013.5
20260509154327 77 115 3.0 8.0 0.00 0.00 0.00 85 1013.4
20260509145345 73 223 2.0 4.0 0.00 0.00 0.00 92 1014.0
20260509144421 73 192 1.0 4.0 0.00 0.00 0.00 93 1014.0
20260509143342 73 155 2.0 3.0 0.00 0.00 0.00 93 1013.8
20260509142411 73 38 0.0 1.0 0.00 0.00 0.00 94 1013.8
20260509141332 73 38 0.0 2.0 0.00 0.00 0.00 94 1013.3
20260509140409 73 66 0.0 1.0 0.00 0.00 0.00 95 1013.0
20260509135325 72 66 0.0 0.0 0.00 0.00 0.00 95 1012.8
20260509134338 72 66 0.0 1.0 0.00 0.00 0.00 95 1012.9
20260509133416 72 66 0.0 1.0 0.00 0.00 0.00 95 1013.0
20260509132332 72 66 0.0 1.0 0.00 0.00 0.00 95 1013.0
20260509131402 72 66 0.0 0.0 0.00 0.00 0.00 95 1013.1
20260509130326 72 66 0.0 1.0 0.00 0.00 0.00 95 1013.2
20260509125358 72 66 1.0 2.0 0.00 0.00 0.00 95 1012.9
20260509124417 72 66 0.0 2.0 0.00 0.00 0.00 95 1013.0
20260509122343 72 66 1.0 3.0 0.00 0.00 0.00 95 1012.8
20260509121358 72 73 0.0 4.0 0.00 0.00 0.00 95 1013.2
20260509120411 72 73 0.0 8.0 0.00 0.00 0.00 95 1013.0
20260509115334 72 39 0.0 1.0 0.00 0.00 0.00 95 1013.2
20260509113351 72 22 0.0 4.0 0.00 0.00 0.00 95 1013.1
20260509112410 72 27 0.0 2.0 0.00 0.00 0.00 95 1013.1
20260509111345 72 44 0.0 0.0 0.00 0.00 0.00 95 1013.1
20260509110416 72 115 0.0 0.0 0.00 0.00 0.00 95 1012.8
20260509105337 72 115 0.0 0.0 0.00 0.00 0.00 95 1012.5
20260509104339 72 115 0.0 0.0 0.00 0.00 0.00 95 1012.5
20260509103415 72 115 0.0 0.0 0.00 0.00 0.00 95 1012.7
20260509100400 72 115 0.0 0.0 0.00 0.00 0.00 95 1012.5
20260509095422 72 115 0.0 0.0 0.00 0.00 0.00 95 1012.2
20260509094344 72 115 0.0 0.0 0.00 0.00 0.00 95 1012.1
20260509093419 72 167 0.0 0.0 0.00 0.00 0.00 94 1011.9
20260509092345 72 167 0.0 0.0 0.00 0.00 0.00 94 1011.8
20260509091414 72 167 0.0 0.0 0.00 0.00 0.00 94 1011.9
20260509090323 72 167 0.0 0.0 0.00 0.00 0.00 94 1011.8
20260509085354 72 167 0.0 0.0 0.00 0.00 0.00 94 1011.7
20260509084415 72 167 0.0 1.0 0.00 0.00 0.00 94 1011.6
20260509082342 72 167 1.0 4.0 0.00 0.00 0.00 94 1012.0
20260509081411 72 175 0.0 2.0 0.00 0.00 0.00 94 1012.1
20260509080415 72 175 1.0 4.0 0.00 0.00 0.00 94 1012.1
20260509075324 72 202 0.0 2.0 0.00 0.00 0.00 94 1011.8
20260509073350 72 202 0.0 1.0 0.00 0.00 0.00 93 1012.0
20260509072402 72 202 0.0 1.0 0.00 0.00 0.00 93 1011.7
20260509071329 72 202 0.0 3.0 0.00 0.00 0.00 93 1011.8
20260509070350 72 202 1.0 3.0 0.00 0.00 0.00 93 1011.8
20260509065332 72 202 1.0 3.0 0.00 0.00 0.00 93 1012.0
20260509064346 72 209 1.0 3.0 0.00 0.00 0.00 93 1011.8
20260509063339 72 191 1.0 3.0 0.00 0.00 0.00 92 1012.0
20260509062342 72 183 1.0 6.0 0.00 0.00 0.00 92 1012.2
20260509061335 72 176 2.0 6.0 0.00 0.00 0.00 92 1011.9
20260509060335 72 223 1.0 7.0 0.00 0.00 0.00 92 1012.2
20260509055337 72 160 2.0 7.0 0.00 0.00 0.00 93 1012.2
20260509054330 72 197 3.0 6.0 0.00 0.00 0.00 93 1012.4
20260509053333 71 167 1.0 3.0 0.00 0.00 0.00 93 1012.6
20260509052336 71 222 0.0 0.0 0.00 0.00 0.00 93 1012.8
20260509051326 71 222 0.0 1.0 0.00 0.00 0.00 94 1012.7
20260509050327 70 217 1.0 5.0 0.00 0.00 0.00 94 1012.8
20260509045408 69 204 1.0 2.0 0.00 0.00 0.00 94 1012.7
20260509044329 68 92 0.0 0.0 0.00 0.00 0.00 92 1012.5
20260509043358 68 92 0.0 0.0 0.00 0.00 0.00 92 1012.2
20260509042417 67 92 0.0 0.0 0.00 0.00 0.00 91 1012.2
20260509040349 68 92 0.0 0.0 0.00 0.00 0.00 90 1011.9
20260509035412 68 92 0.0 0.0 0.00 0.00 0.00 90 1012.0
20260509034327 69 92 0.0 0.0 0.00 0.00 0.00 90 1012.0
20260509033354 69 92 0.0 0.0 0.00 0.00 0.00 89 1011.9
20260509032416 70 92 0.0 0.0 0.00 0.00 0.00 89 1011.9
20260509031327 70 92 0.0 0.0 0.00 0.00 0.00 89 1011.9
20260509030403 71 92 0.0 0.0 0.00 0.00 0.00 89 1011.8
20260509025416 71 92 0.0 0.0 0.00 0.00 0.00 89 1011.8
20260509024330 71 92 0.0 0.0 0.00 0.00 0.00 88 1011.8
20260509021346 73 92 0.0 0.0 0.00 0.00 0.00 86 1011.2
20260509020422 73 92 0.0 0.0 0.00 0.00 0.00 86 1011.2
20260509015339 73 92 0.0 0.0 0.00 0.00 0.00 85 1010.9
20260509014419 74 92 0.0 0.0 0.00 0.00 0.00 85 1010.9
20260509013342 74 92 0.0 0.0 0.00 0.00 0.00 85 1010.6
20260509012409 74 92 0.0 0.0 0.00 0.00 0.00 84 1010.5
20260509010341 75 92 0.0 0.0 0.00 0.00 0.00 83 1010.7
20260509005358 75 92 0.0 0.0 0.00 0.00 0.00 83 1010.6
20260509004416 75 92 0.0 3.0 0.00 0.00 0.00 82 1010.6
20260509002345 75 127 1.0 3.0 0.00 0.00 0.00 82 1010.6
20260509001406 76 117 1.0 4.0 0.00 0.00 0.00 81 1010.7
20260509000336 76 157 1.0 5.0 0.00 0.00 0.00 81 1010.6
20260508235402 76 162 2.0 5.0 0.00 0.00 0.00 81 1010.7
20260508234421 76 173 1.0 5.0 0.00 0.00 0.00 80 1010.7
20260508233357 76 210 1.0 6.0 0.00 0.00 0.00 80 1010.7
20260508232411 76 157 2.0 5.0 0.00 0.00 0.00 80 1010.7
20260508231331 76 111 3.0 7.0 0.00 0.00 0.00 80 1010.5
20260508230356 76 139 4.0 7.0 0.00 0.00 0.00 80 1010.5
20260508225331 76 158 3.0 7.0 0.00 0.00 0.00 81 1010.6
20260508224405 75 125 5.0 9.0 0.00 0.00 0.00 81 1010.6
20260508223329 75 135 4.0 9.0 0.00 0.00 0.00 81 1010.7
20260508222358 75 150 3.0 10.0 0.00 0.00 0.00 81 1010.8
20260508221417 75 143 1.0 7.0 0.00 0.00 0.00 81 1010.9
20260508220343 75 166 4.0 6.0 0.00 0.00 0.00 82 1011.0
20260508215402 75 172 5.0 8.0 0.00 0.00 0.00 82 1011.0
20260508214418 75 118 3.0 8.0 0.00 0.00 0.00 81 1011.1
20260508212342 76 196 3.0 8.0 0.00 0.00 0.00 81 1011.2
20260508211416 75 130 3.0 8.0 0.00 0.00 0.00 81 1011.3
20260508210345 76 141 4.0 8.0 0.00 0.00 0.00 80 1011.6
20260508205417 76 156 3.0 7.0 0.00 0.00 0.00 80 1011.5
20260508204339 75 146 4.0 7.0 0.00 0.00 0.00 80 1011.7
20260508203405 75 111 3.0 9.0 0.00 0.00 0.00 80 1011.7
20260508202337 75 94 3.0 7.0 0.00 0.00 0.00 81 1011.8
20260508201407 75 196 4.0 7.0 0.00 0.00 0.00 80 1011.9
20260508200323 75 110 3.0 8.0 0.00 0.00 0.00 82 1011.9
20260508195353 74 69 4.0 8.0 0.00 0.00 0.00 81 1012.1
20260508194402 74 131 4.0 8.0 0.00 0.00 0.00 82 1012.2
20260508193335 73 105 3.0 9.0 0.00 0.00 0.00 83 1012.5